Location: Unspecified
(0.0000°N, 0.0000°E)
Time: 09:22:27
(UTC+00:00)

Vanguard 2 - Pass Details

Date: 18 December 2018
Orbit: 553 x 2939 km, 32.9° (Epoch: 23 March)

Event Time Altitude Azimuth Distance (km) Brightness Sun altitude
Rises 07:04:27 0° 254° (WSW) 6,645 11.9 15.6°
Reaches altitude 10° 07:11:11 10° 238° (WSW) 5,759 11.7 17.1°
Maximum altitude 07:22:10 19° 199° (SSW) 4,927 11.8 19.6°
Drops below altitude 10° 07:32:18 10° 160° (SSE) 5,222 12.6 21.9°
Sets 07:37:59 0° 142° (SE) 5,846 13.1 23.2°
